Time,TemperatureF,DewpointF,PressureIn,WindDirection,WindDirectionDegrees,WindSpeedMPH,WindSpeedGustMPH,Humidity,HourlyPrecipIn,Conditions,Clouds,dailyrainin,SoftwareType,DateUTC
2013-06-28 08:17:00,58.9,56.9,29.52,ESE,123,6.0,7.0,93,0.51,,---,0.51,VWS V14.01,2013-06-28 12:17:00,
2013-06-28 08:18:00,58.9,56.9,29.52,East,80,13.0,16.0,93,0.51,,---,0.51,VWS V14.01,2013-06-28 12:18:00,
2013-06-28 08:20:00,58.9,56.9,29.52,East,81,13.0,18.0,93,0.51,,---,0.51,VWS V14.01,2013-06-28 12:20:00,
2013-06-28 08:21:00,58.9,56.9,29.52,East,92,6.0,18.0,93,0.51,,---,0.51,VWS V14.01,2013-06-28 12:21:00,
2013-06-28 08:26:00,58.7,56.7,29.52,East,91,13.0,18.0,93,0.51,,---,0.51,VWS V14.01,2013-06-28 12:26:00,
2013-06-28 08:31:00,58.7,56.7,29.52,East,85,11.0,19.0,93,0.51,,---,0.51,VWS V14.01,2013-06-28 12:31:00,
2013-06-28 08:36:00,58.7,56.7,29.52,East,93,11.0,17.0,93,0.01,,---,0.52,VWS V14.01,2013-06-28 12:36:00,
2013-06-28 08:41:00,58.7,56.7,29.52,East,94,14.0,21.0,93,0.03,,---,0.54,VWS V14.01,2013-06-28 12:41:00,
2013-06-28 08:46:00,58.9,56.9,29.51,ESE,119,6.0,21.0,93,0.05,,---,0.56,VWS V14.01,2013-06-28 12:46:00,
2013-06-28 08:51:00,59.0,57.0,29.51,ESE,107,15.0,21.0,93,0.06,,---,0.57,VWS V14.01,2013-06-28 12:51:00,
2013-06-28 08:56:00,58.9,56.9,29.51,ENE,76,17.0,21.0,93,0.07,,---,0.58,VWS V14.01,2013-06-28 12:56:00,
2013-06-28 09:01:00,59.0,57.0,29.50,East,101,11.0,15.0,93,0.09,,---,0.60,VWS V14.01,2013-06-28 13:01:00,
2013-06-28 09:06:00,58.9,56.9,29.50,East,88,14.0,18.0,93,0.11,,---,0.62,VWS V14.01,2013-06-28 13:06:00,
2013-06-28 09:11:00,59.0,57.0,29.50,East,90,18.0,22.0,93,0.16,,---,0.67,VWS V14.01,2013-06-28 13:11:00,
2013-06-28 09:16:00,59.0,57.0,29.49,East,101,13.0,27.0,93,0.18,,---,0.69,VWS V14.01,2013-06-28 13:16:00,
2013-06-28 09:21:00,59.0,57.0,29.49,East,82,17.0,27.0,93,0.19,,---,0.70,VWS V14.01,2013-06-28 13:21:00,
2013-06-28 09:27:00,59.0,57.0,29.49,East,90,16.0,27.0,93,0.19,,---,0.70,VWS V14.01,2013-06-28 13:27:00,
2013-06-28 09:32:00,59.0,57.0,29.49,East,82,10.0,17.0,93,0.21,,---,0.72,VWS V14.01,2013-06-28 13:32:00,
2013-06-28 09:37:00,59.0,57.0,29.49,ESE,111,14.0,24.0,93,0.23,,---,0.74,VWS V14.01,2013-06-28 13:37:00,
2013-06-28 09:42:00,59.0,57.0,29.49,ENE,77,10.0,24.0,93,0.25,,---,0.76,VWS V14.01,2013-06-28 13:42:00,
2013-06-28 09:47:00,58.9,56.9,29.49,NE,52,6.0,24.0,93,0.27,,---,0.78,VWS V14.01,2013-06-28 13:47:00,
2013-06-28 09:52:00,59.0,57.0,29.49,ENE,78,8.0,24.0,93,0.29,,---,0.80,VWS V14.01,2013-06-28 13:52:00,
2013-06-28 09:57:00,58.9,56.9,29.49,ENE,75,7.0,24.0,93,0.30,,---,0.81,VWS V14.01,2013-06-28 13:57:00,
2013-06-28 10:02:00,58.9,56.9,29.49,East,79,15.0,19.0,93,0.22,,---,0.81,VWS V14.01,2013-06-28 14:02:00,
2013-06-28 10:07:00,59.2,57.2,29.49,East,101,10.0,19.0,93,0.23,,---,0.82,VWS V14.01,2013-06-28 14:07:00,
2013-06-28 10:12:00,59.0,57.0,29.49,East,88,8.0,19.0,93,0.23,,---,0.82,VWS V14.01,2013-06-28 14:12:00,
2013-06-28 10:17:00,59.0,57.0,29.49,East,100,4.0,19.0,93,0.24,,---,0.83,VWS V14.01,2013-06-28 14:17:00,
2013-06-28 10:22:00,58.9,56.9,29.49,East,92,12.0,19.0,93,0.24,,---,0.83,VWS V14.01,2013-06-28 14:22:00,
2013-06-28 10:27:00,58.9,56.9,29.49,East,84,12.0,19.0,93,0.25,,---,0.84,VWS V14.01,2013-06-28 14:27:00,
2013-06-28 10:32:00,59.0,57.3,29.49,East,79,3.0,11.0,94,0.13,,---,0.84,VWS V14.01,2013-06-28 14:32:00,
2013-06-28 10:37:00,58.9,57.2,29.49,East,90,11.0,18.0,94,0.13,,---,0.84,VWS V14.01,2013-06-28 14:37:00,
2013-06-28 10:42:00,59.0,57.3,29.49,East,90,19.0,20.0,94,0.14,,---,0.85,VWS V14.01,2013-06-28 14:42:00,
2013-06-28 10:47:00,59.0,57.3,29.49,East,85,11.0,20.0,94,0.15,,---,0.86,VWS V14.01,2013-06-28 14:47:00,
2013-06-28 10:52:00,59.0,57.3,29.49,SE,140,5.0,20.0,94,0.15,,---,0.86,VWS V14.01,2013-06-28 14:52:00,
2013-06-28 10:58:00,59.3,57.6,29.49,ESE,104,4.0,20.0,94,0.15,,---,0.86,VWS V14.01,2013-06-28 14:58:00,
2013-06-28 11:03:00,59.3,57.6,29.47,East,90,12.0,17.0,94,0.06,,---,0.87,VWS V14.01,2013-06-28 15:03:00,
2013-06-28 11:08:00,59.3,57.6,29.47,East,92,14.0,17.0,94,0.06,,---,0.87,VWS V14.01,2013-06-28 15:08:00,
2013-06-28 11:13:00,59.5,57.5,29.47,East,101,10.0,18.0,93,0.06,,---,0.87,VWS V14.01,2013-06-28 15:13:00,
2013-06-28 11:18:00,59.5,57.5,29.47,East,85,14.0,18.0,93,0.06,,---,0.87,VWS V14.01,2013-06-28 15:18:00,
2013-06-28 11:23:00,59.3,57.3,29.47,ENE,78,15.0,18.0,93,0.07,,---,0.88,VWS V14.01,2013-06-28 15:23:00,
2013-06-28 11:28:00,59.3,56.4,29.47,ENE,75,12.0,18.0,90,0.07,,---,0.88,VWS V14.01,2013-06-28 15:28:00,
2013-06-28 11:33:00,59.3,57.3,29.47,ESE,123,7.0,22.0,93,0.04,,---,0.88,VWS V14.01,2013-06-28 15:33:00,
2013-06-28 11:38:00,59.5,57.5,29.47,ENE,75,6.0,22.0,93,0.04,,---,0.88,VWS V14.01,2013-06-28 15:38:00,
2013-06-28 11:43:00,59.6,57.6,29.47,East,88,13.0,22.0,93,0.04,,---,0.88,VWS V14.01,2013-06-28 15:43:00,
2013-06-28 11:48:00,59.6,57.6,29.47,East,98,9.0,22.0,93,0.04,,---,0.88,VWS V14.01,2013-06-28 15:48:00,
2013-06-28 11:54:00,59.6,57.6,29.47,East,99,4.0,22.0,93,0.04,,---,0.88,VWS V14.01,2013-06-28 15:54:00,
2013-06-28 11:59:00,59.6,57.6,29.47,East,96,6.0,22.0,93,0.05,,---,0.89,VWS V14.01,2013-06-28 15:59:00,
2013-06-28 12:04:00,59.5,57.5,29.47,East,99,4.0,7.0,93,0.04,,---,0.91,VWS V14.01,2013-06-28 16:04:00,
2013-06-28 12:09:00,59.6,57.9,29.47,ESE,109,4.0,13.0,94,0.05,,---,0.92,VWS V14.01,2013-06-28 16:09:00,
2013-06-28 12:14:00,59.6,57.9,29.47,East,84,6.0,13.0,94,0.05,,---,0.92,VWS V14.01,2013-06-28 16:14:00,
2013-06-28 12:19:00,59.8,58.1,29.47,ENE,73,10.0,13.0,94,0.05,,---,0.92,VWS V14.01,2013-06-28 16:19:00,
2013-06-28 12:24:00,59.8,58.1,29.47,NE,53,6.0,14.0,94,0.05,,---,0.92,VWS V14.01,2013-06-28 16:24:00,
2013-06-28 12:29:00,59.8,58.1,29.47,East,88,10.0,14.0,94,0.06,,---,0.93,VWS V14.01,2013-06-28 16:29:00,
2013-06-28 12:34:00,59.9,58.2,29.47,East,84,11.0,13.0,94,0.05,,---,0.93,VWS V14.01,2013-06-28 16:34:00,
2013-06-28 12:39:00,59.9,58.2,29.47,East,99,6.0,13.0,94,0.07,,---,0.95,VWS V14.01,2013-06-28 16:39:00,
2013-06-28 12:44:00,60.1,58.4,29.47,ESE,117,4.0,14.0,94,0.07,,---,0.95,VWS V14.01,2013-06-28 16:44:00,
2013-06-28 12:49:00,59.9,58.2,29.47,East,94,3.0,14.0,94,0.08,,---,0.96,VWS V14.01,2013-06-28 16:49:00,
2013-06-28 12:54:00,59.9,58.2,29.47,ESE,113,9.0,16.0,94,0.08,,---,0.96,VWS V14.01,2013-06-28 16:54:00,
2013-06-28 13:00:00,60.1,58.4,29.47,ESE,113,6.0,16.0,94,0.08,,---,0.96,VWS V14.01,2013-06-28 17:00:00,
2013-06-28 13:05:00,60.1,58.4,29.47,East,82,9.0,14.0,94,0.06,,---,0.96,VWS V14.01,2013-06-28 17:05:00,
2013-06-28 13:10:00,60.2,58.5,29.47,East,95,15.0,15.0,94,0.06,,---,0.96,VWS V14.01,2013-06-28 17:10:00,
2013-06-28 13:15:00,60.4,58.7,29.47,East,79,11.0,20.0,94,0.06,,---,0.96,VWS V14.01,2013-06-28 17:15:00,
2013-06-28 13:20:00,60.4,58.7,29.46,East,101,12.0,20.0,94,0.06,,---,0.96,VWS V14.01,2013-06-28 17:20:00,
2013-06-28 13:25:00,60.5,58.8,29.46,East,82,13.0,20.0,94,0.07,,---,0.97,VWS V14.01,2013-06-28 17:25:00,
2013-06-28 13:30:00,60.5,58.8,29.46,ESE,103,10.0,20.0,94,0.07,,---,0.97,VWS V14.01,2013-06-28 17:30:00,
2013-06-28 13:35:00,60.7,59.0,29.46,East,94,13.0,13.0,94,0.04,,---,0.97,VWS V14.01,2013-06-28 17:35:00,
2013-06-28 13:40:00,60.7,59.0,29.46,East,98,6.0,13.0,94,0.04,,---,0.97,VWS V14.01,2013-06-28 17:40:00,
2013-06-28 13:45:00,60.7,59.0,29.46,East,91,5.0,13.0,94,0.04,,---,0.97,VWS V14.01,2013-06-28 17:45:00,
2013-06-28 13:50:00,60.7,59.0,29.46,East,86,7.0,13.0,94,0.04,,---,0.97,VWS V14.01,2013-06-28 17:50:00,
2013-06-28 13:55:00,60.9,59.2,29.46,ESE,115,1.0,14.0,94,0.04,,---,0.97,VWS V14.01,2013-06-28 17:55:00,
2013-06-28 14:00:00,60.9,59.2,29.46,East,96,6.0,14.0,94,0.04,,---,0.97,VWS V14.01,2013-06-28 18:00:00,
2013-06-28 14:05:00,60.9,59.2,29.46,East,92,14.0,14.0,94,0.01,,---,0.97,VWS V14.01,2013-06-28 18:05:00,
2013-06-28 14:11:00,60.9,59.2,29.46,East,96,5.0,15.0,94,0.01,,---,0.97,VWS V14.01,2013-06-28 18:11:00,
2013-06-28 14:16:00,60.9,58.9,29.46,East,91,10.0,15.0,93,0.01,,---,0.97,VWS V14.01,2013-06-28 18:16:00,
2013-06-28 14:21:00,60.9,59.2,29.46,ESE,103,10.0,15.0,94,0.01,,---,0.97,VWS V14.01,2013-06-28 18:21:00,
2013-06-28 14:26:00,61.0,59.3,29.46,East,87,7.0,15.0,94,0.01,,---,0.97,VWS V14.01,2013-06-28 18:26:00,
2013-06-28 14:31:00,61.0,59.3,29.46,ENE,71,7.0,15.0,94,0.01,,---,0.97,VWS V14.01,2013-06-28 18:31:00,
2013-06-28 14:36:00,61.0,59.3,29.46,East,89,9.0,13.0,94,0.00,,---,0.97,VWS V14.01,2013-06-28 18:36:00,
2013-06-28 14:41:00,61.2,59.5,29.46,East,101,15.0,15.0,94,0.00,,---,0.97,VWS V14.01,2013-06-28 18:41:00,
2013-06-28 14:46:00,61.3,59.3,29.46,ESE,123,2.0,15.0,93,0.00,,---,0.97,VWS V14.01,2013-06-28 18:46:00,
2013-06-28 14:51:00,61.3,59.3,29.46,East,80,8.0,15.0,93,0.00,,---,0.97,VWS V14.01,2013-06-28 18:51:00,
2013-06-28 14:56:00,61.6,59.6,29.46,East,90,11.0,15.0,93,0.00,,---,0.97,VWS V14.01,2013-06-28 18:56:00,
2013-06-28 15:01:00,61.6,59.3,29.45,East,88,9.0,11.0,92,0.00,,---,0.97,VWS V14.01,2013-06-28 19:01:00,
2013-06-28 15:06:00,61.6,59.3,29.45,East,98,6.0,15.0,92,0.00,,---,0.97,VWS V14.01,2013-06-28 19:06:00,
2013-06-28 15:11:00,61.8,59.5,29.45,East,90,7.0,15.0,92,0.00,,---,0.97,VWS V14.01,2013-06-28 19:11:00,
2013-06-28 15:16:00,62.0,59.7,29.45,ENE,76,7.0,15.0,92,0.00,,---,0.97,VWS V14.01,2013-06-28 19:16:00,
2013-06-28 15:21:00,62.1,59.8,29.45,East,89,6.0,15.0,92,0.00,,---,0.97,VWS V14.01,2013-06-28 19:21:00,
2013-06-28 15:26:00,62.3,59.6,29.45,ENE,78,10.0,15.0,91,0.00,,---,0.97,VWS V14.01,2013-06-28 19:26:00,
2013-06-28 15:32:00,62.4,59.4,29.45,ENE,75,9.0,11.0,90,0.00,,---,0.97,VWS V14.01,2013-06-28 19:32:00,
2013-06-28 15:37:00,62.7,60.0,29.45,East,95,9.0,15.0,91,0.00,,---,0.97,VWS V14.01,2013-06-28 19:37:00,
2013-06-28 15:42:00,62.7,59.7,29.45,ENE,71,8.0,15.0,90,0.00,,---,0.97,VWS V14.01,2013-06-28 19:42:00,
2013-06-28 15:47:00,62.7,59.7,29.44,East,86,9.0,15.0,90,0.00,,---,0.97,VWS V14.01,2013-06-28 19:47:00,
2013-06-28 15:52:00,62.7,59.7,29.44,ENE,62,6.0,15.0,90,0.00,,---,0.97,VWS V14.01,2013-06-28 19:52:00,
2013-06-28 15:57:00,62.7,59.7,29.44,East,87,11.0,15.0,90,0.00,,---,0.97,VWS V14.01,2013-06-28 19:57:00,
2013-06-28 16:02:00,62.7,59.7,29.44,ENE,74,10.0,15.0,90,0.00,,---,0.97,VWS V14.01,2013-06-28 20:02:00,
2013-06-28 16:07:00,62.7,59.4,29.44,East,90,14.0,15.0,89,0.00,,---,0.97,VWS V14.01,2013-06-28 20:07:00,
2013-06-28 16:12:00,62.9,59.9,29.44,East,98,5.0,15.0,90,0.00,,---,0.97,VWS V14.01,2013-06-28 20:12:00,
2013-06-28 16:17:00,62.9,59.9,29.44,East,97,6.0,15.0,90,0.00,,---,0.97,VWS V14.01,2013-06-28 20:17:00,
2013-06-28 16:22:00,62.9,59.9,29.44,East,90,6.0,15.0,90,0.00,,---,0.97,VWS V14.01,2013-06-28 20:22:00,
2013-06-28 16:27:00,62.9,59.9,29.44,ENE,73,6.0,15.0,90,0.00,,---,0.97,VWS V14.01,2013-06-28 20:27:00,
2013-06-28 16:32:00,62.9,59.9,29.44,ESE,105,6.0,11.0,90,0.00,,---,0.97,VWS V14.01,2013-06-28 20:32:00,
2013-06-28 16:37:00,63.1,60.1,29.44,ENE,69,5.0,12.0,90,0.00,,---,0.97,VWS V14.01,2013-06-28 20:37:00,
2013-06-28 16:43:00,63.1,60.1,29.44,ENE,63,4.0,12.0,90,0.00,,---,0.97,VWS V14.01,2013-06-28 20:43:00,
2013-06-28 16:48:00,63.1,60.1,29.43,East,93,5.0,16.0,90,0.00,,---,0.97,VWS V14.01,2013-06-28 20:48:00,
2013-06-28 16:53:00,63.2,60.2,29.43,East,96,6.0,16.0,90,0.00,,---,0.97,VWS V14.01,2013-06-28 20:53:00,
2013-06-28 16:58:00,63.2,60.2,29.43,East,80,5.0,16.0,90,0.00,,---,0.97,VWS V14.01,2013-06-28 20:58:00,
2013-06-28 17:03:00,63.4,60.4,29.43,East,98,5.0,10.0,90,0.00,,---,0.97,VWS V14.01,2013-06-28 21:03:00,
2013-06-28 17:08:00,63.5,60.2,29.43,ENE,72,9.0,12.0,89,0.00,,---,0.97,VWS V14.01,2013-06-28 21:08:00,
2013-06-28 17:13:00,63.7,60.4,29.43,East,101,9.0,13.0,89,0.00,,---,0.97,VWS V14.01,2013-06-28 21:13:00,
2013-06-28 17:18:00,63.7,60.7,29.43,ENE,77,11.0,13.0,90,0.00,,---,0.97,VWS V14.01,2013-06-28 21:18:00,
2013-06-28 17:23:00,63.7,60.4,29.43,East,101,3.0,14.0,89,0.00,,---,0.97,VWS V14.01,2013-06-28 21:23:00,
2013-06-28 17:28:00,63.7,60.4,29.43,East,80,10.0,15.0,89,0.00,,---,0.97,VWS V14.01,2013-06-28 21:28:00,
2013-06-28 17:33:00,63.7,60.4,29.43,East,84,10.0,10.0,89,0.00,,---,0.97,VWS V14.01,2013-06-28 21:33:00,
2013-06-28 17:38:00,63.7,60.4,29.43,ESE,112,9.0,13.0,89,0.00,,---,0.97,VWS V14.01,2013-06-28 21:38:00,
2013-06-28 17:43:00,63.7,60.4,29.43,East,88,4.0,13.0,89,0.00,,---,0.97,VWS V14.01,2013-06-28 21:43:00,
2013-06-28 17:48:00,63.7,60.4,29.44,East,85,4.0,13.0,89,0.00,,---,0.97,VWS V14.01,2013-06-28 21:48:00,
2013-06-28 17:53:00,63.7,60.4,29.44,East,87,7.0,13.0,89,0.00,,---,0.97,VWS V14.01,2013-06-28 21:53:00,
2013-06-28 17:58:00,63.7,60.4,29.44,East,86,8.0,13.0,89,0.00,,---,0.97,VWS V14.01,2013-06-28 21:58:00,
2013-06-28 18:04:00,63.7,60.4,29.43,ESE,109,4.0,10.0,89,0.00,,---,0.97,VWS V14.01,2013-06-28 22:04:00,
2013-06-28 18:09:00,63.5,60.2,29.43,ESE,107,4.0,12.0,89,0.00,,---,0.97,VWS V14.01,2013-06-28 22:09:00,
2013-06-28 18:14:00,63.5,60.5,29.43,ESE,107,4.0,12.0,90,0.00,,---,0.97,VWS V14.01,2013-06-28 22:14:00,
2013-06-28 18:19:00,63.4,60.4,29.44,ESE,104,7.0,12.0,90,0.00,,---,0.97,VWS V14.01,2013-06-28 22:19:00,
2013-06-28 18:24:00,63.5,59.9,29.44,East,87,9.0,16.0,88,0.00,,---,0.97,VWS V14.01,2013-06-28 22:24:00,
2013-06-28 18:29:00,63.5,60.5,29.44,East,86,2.0,16.0,90,0.00,,---,0.97,VWS V14.01,2013-06-28 22:29:00,
2013-06-28 18:34:00,63.4,60.4,29.44,East,90,3.0,6.0,90,0.00,,---,0.97,VWS V14.01,2013-06-28 22:34:00,
2013-06-28 18:39:00,63.4,60.4,29.44,East,92,6.0,7.0,90,0.00,,---,0.97,VWS V14.01,2013-06-28 22:39:00,
2013-06-28 18:44:00,63.5,60.5,29.44,East,88,7.0,11.0,90,0.00,,---,0.97,VWS V14.01,2013-06-28 22:44:00,
2013-06-28 18:49:00,63.7,60.7,29.45,East,92,6.0,14.0,90,0.00,,---,0.97,VWS V14.01,2013-06-28 22:49:00,
2013-06-28 18:54:00,63.5,60.5,29.45,East,98,6.0,14.0,90,0.00,,---,0.97,VWS V14.01,2013-06-28 22:54:00,
2013-06-28 18:59:00,63.7,60.7,29.45,East,92,6.0,14.0,90,0.00,,---,0.97,VWS V14.01,2013-06-28 22:59:00,
2013-06-28 19:04:00,63.7,60.7,29.44,East,88,9.0,11.0,90,0.00,,---,0.97,VWS V14.01,2013-06-28 23:04:00,
2013-06-28 19:09:00,63.7,60.7,29.44,East,80,6.0,11.0,90,0.00,,---,0.97,VWS V14.01,2013-06-28 23:09:00,
2013-06-28 19:14:00,63.9,60.9,29.44,East,92,4.0,11.0,90,0.00,,---,0.97,VWS V14.01,2013-06-28 23:14:00,
2013-06-28 19:19:00,63.7,60.7,29.45,East,97,4.0,11.0,90,0.00,,---,0.97,VWS V14.01,2013-06-28 23:19:00,
2013-06-28 19:24:00,63.5,60.8,29.45,ESE,115,3.0,11.0,91,0.00,,---,0.97,VWS V14.01,2013-06-28 23:24:00,
2013-06-28 19:30:00,63.4,60.7,29.45,ESE,119,4.0,11.0,91,0.00,,---,0.97,VWS V14.01,2013-06-28 23:30:00,
2013-06-28 19:35:00,63.2,60.8,29.45,ESE,120,3.0,11.0,92,0.03,,---,1.00,VWS V14.01,2013-06-28 23:35:00,
2013-06-28 22:28:00,63.4,61.7,29.47,ESE,102,3.0,3.0,94,0.06,,---,1.03,VWS V14.01,2013-06-29 02:28:00,
2013-06-28 22:33:00,63.4,61.3,29.47,ENE,72,0.0,2.0,93,0.00,,---,1.03,VWS V14.01,2013-06-29 02:33:00,
2013-06-28 22:38:00,63.2,61.5,29.47,ESE,106,0.0,3.0,94,0.01,,---,1.04,VWS V14.01,2013-06-29 02:38:00,
2013-06-28 22:43:00,63.2,61.5,29.47,East,101,3.0,4.0,94,0.01,,---,1.04,VWS V14.01,2013-06-29 02:43:00,
2013-06-28 22:48:00,63.2,61.5,29.47,ESE,115,0.0,6.0,94,0.01,,---,1.04,VWS V14.01,2013-06-29 02:48:00,
2013-06-28 22:53:00,63.2,61.2,29.47,ENE,59,2.0,6.0,93,0.01,,---,1.04,VWS V14.01,2013-06-29 02:53:00,
2013-06-28 22:59:00,63.1,61.0,29.47,ENE,74,3.0,6.0,93,0.01,,---,1.04,VWS V14.01,2013-06-29 02:59:00,
2013-06-28 23:04:00,63.1,61.3,29.47,ESE,123,0.0,3.0,94,0.01,,---,1.04,VWS V14.01,2013-06-29 03:04:00,
2013-06-28 23:09:00,63.1,61.3,29.47,East,86,0.0,4.0,94,0.01,,---,1.04,VWS V14.01,2013-06-29 03:09:00,
2013-06-28 23:14:00,63.1,61.3,29.47,East,81,5.0,6.0,94,0.01,,---,1.04,VWS V14.01,2013-06-29 03:14:00,
2013-06-28 23:19:00,63.1,61.3,29.47,East,98,0.0,6.0,94,0.01,,---,1.04,VWS V14.01,2013-06-29 03:19:00,
2013-06-28 23:24:00,63.1,61.3,29.47,ESE,111,0.0,6.0,94,0.01,,---,1.04,VWS V14.01,2013-06-29 03:24:00,
2013-06-28 23:29:00,63.2,61.5,29.47,East,98,4.0,6.0,94,0.01,,---,1.04,VWS V14.01,2013-06-29 03:29:00,
2013-06-28 23:34:00,63.2,61.5,29.47,East,81,4.0,4.0,94,0.01,,---,1.04,VWS V14.01,2013-06-29 03:34:00,
2013-06-28 23:39:00,63.4,61.7,29.47,ENE,67,0.0,5.0,94,0.01,,---,1.04,VWS V14.01,2013-06-29 03:39:00,
2013-06-28 23:44:00,63.2,61.5,29.47,East,100,0.0,5.0,94,0.01,,---,1.04,VWS V14.01,2013-06-29 03:44:00,
2013-06-28 23:49:00,63.2,61.5,29.47,East,100,0.0,5.0,94,0.01,,---,1.04,VWS V14.01,2013-06-29 03:49:00,
2013-06-28 23:54:00,63.1,61.3,29.47,East,100,0.0,5.0,94,0.01,,---,1.04,VWS V14.01,2013-06-29 03:54:00,
2013-06-28 23:59:00,63.2,61.5,29.47,East,84,3.0,5.0,94,0.01,,---,1.04,VWS V14.01,2013-06-29 03:59:00,